Location: Unspecified
(41.5300°N, 12.2800°E)
Time: 10:09:07
(UTC+00:00)

X-37B - Visible Passes

Search period start: 26 March 2023 00:00
Search period end: 05 April 2023 00:00
Orbit: 277 x 277 km, 45.0° (Epoch: 01 November)

Date Brightness Start Highest point End Pass type
(mag) Time Alt. Az. Time Alt. Az. Time Alt. Az.
26 Mar -0.1 18:08:19 10° WNW 18:10:47 74° NNE 18:12:44 14° ESE visible
27 Mar 0.1 18:09:01 10° WNW 18:11:27 64° SSW 18:13:33 13° ESE visible
28 Mar 1.2 18:09:48 10° W 18:12:05 34° SSW 18:14:22 10° SE visible
29 Mar 2.3 18:10:48 10° W 18:12:39 19° SSW 18:14:31 10° SSE visible
30 Mar 3.0 18:12:35 10° SW 18:13:11 11° SW 18:13:45 10° SSW visible
